Simultaneous Nadir Overpasses (SNOs) Predictions

Prediction of SNOs between METOP-A and TERRA Satellite Orbit:

Table of predicted SNOs for the next 14.0 days since TLE Epoch: 6/15/2014
Index Date (METOP-A) Time (METOP-A) Lat,Lon (METOP-A) SZA (METOP-A ) Date (TERRA) Time (TERRA) Lat,Lon (TERRA) SZA (TERRA ) Distance(km) Time Diff (sec)
1 06/16/2014 05:26:11 81.27, 144.82 60.76 06/16/2014 05:27:15 81.27, 144.87 60.79 1.09 64
2 06/16/2014 06:16:50 -81.28, -47.31 119.18 06/16/2014 06:16:41 -81.28, -47.23 119.18 1.30 9
3 06/19/2014 01:00:36 81.28,-148.35 60.72 06/19/2014 01:01:28 81.28,-148.45 60.74 1.59 52
4 06/19/2014 01:51:16 -81.28, 19.17 119.26 06/19/2014 01:50:55 -81.28, 19.12 119.28 1.15 21
5 06/21/2014 20:35:02 81.28, -81.96 60.68 06/21/2014 20:35:41 81.28, -81.93 60.71 0.67 39
6 06/
